(42139) = 1981 KX = 2001 BQ29

Discovered at Socorro on 2001-01-20 by LINEAR.

Orbit

Orbit type: Main Belt

Note: WebGL enabled browser required.

epoch2024-03-31.0
epoch JD2460400.5
perihelion date2023-09-19.89605
perihelion JD2460207.39606
argument of perihelion (°)271.65873
ascending node (°)310.75382
inclination (°)8.92502
eccentricity0.0679405
perihelion distance (AU)2.8365388
Tisserand w.r.t. Jupiter3.2
ΔV w.r.t. Earth (km/sec)10.8
semimajor axis (AU)3.0433024
mean anomaly (°)35.84904
mean daily motion (°/day)0.18564630
aphelion distance (AU)3.250
period (years)5.31
P-vector [x]-0.72913958
P-vector [y]-0.54987394
P-vector [z]-0.40742377
Q-vector [x]0.67419862
Q-vector [y]-0.67938024
Q-vector [z]-0.28965273
absolute magnitude14.2
phase slope0.15
uncertainty0
referenceE2024-GH2
observations used1573
oppositions22
arc length (days)15659
first opposition used1981
last opposition used2024
residual rms (arc-secs)0.68
perturbers coarse indicatorM-v
perturbers precise indicator003Ek
first observation date used1981-05-28.0
last observation date used2024-04-11.0
computer nameMPCLINUX
JD of orbit computation2456937.434266
perihelion JD uncertainty (days)3.2774E-04
argument of perihelion uncertainty (°)6.6263E-05
ascending node uncertainty (°)2.8305E-05
inclination uncertainty (°)6.7101E-06
eccentricity uncertainty 4.1501E-08
perihelion distance uncertainty (AU)1.2200E-07
Minimum Orbit Intersection Distances (in AU)
for orbit epoch: 2460400.5, reference: E2024-GH2
Mercury2.38584
Venus2.12961
Earth1.8464
Mars1.2703
Jupiter1.84562
Saturn5.89654
Uranus15.4977
Neptune26.6374

Observations

1602 total observations over interval: 1981 05 28.03924 – 2023 06 12.174972
These data are available for download (format description).

Date (UT) J2000 RA J2000 Dec Magn Location Ref
1981 05 28.03924 15 09 08.90 -31 17 11.7 18.0   809 – European Southern Observatory, La Silla MPC 6463
1998 08 29.62554 21 54 42.17 -08 04 51.5   327 – Peking Observatory, Xinglong Station MPS 26824
1998 08 29.63020 21 54 41.90 -08 04 51.6 19.1   327 – Peking Observatory, Xinglong Station MPS 26824
1998 08 29.63477 21 54 41.71 -08 04 52.0   327 – Peking Observatory, Xinglong Station MPS 26824
1998 09 22.90584 21 38 57.24 -08 48 46.0 20.1 V 910 – Caussols-ODAS MPS 26824
1998 09 22.92974 21 38 56.58 -08 48 48.1 19.8 V 910 – Caussols-ODAS MPS 26824
1998 09 22.95351 21 38 55.91 -08 48 49.6 20.0 V 910 – Caussols-ODAS MPS 26824
1999 10 14.24454 02 52 22.26 +29 25 19.7 18.7   704 – Lincoln Laboratory ETS, New Mexico MPS 26824
1999 10 14.26003 02 52 21.50 +29 25 19.5 18.8   704 – Lincoln Laboratory ETS, New Mexico MPS 26824
1999 10 14.27557 02 52 20.88 +29 25 18.9 18.9   704 – Lincoln Laboratory ETS, New Mexico MPS 26824
1999 10 14.29100 02 52 20.17 +29 25 18.2 18.9   704 – Lincoln Laboratory ETS, New Mexico MPS 26824
1999 10 14.30640 02 52 19.53 +29 25 17.9 18.8   704 – Lincoln Laboratory ETS, New Mexico MPS 26824
1999 11 10.34229 02 29 43.89 +28 13 18.1 18.0 R 703 – Catalina Sky Survey MPS 26824
1999 11 10.35460 02 29 43.21 +28 13 14.5 18.3 R 703 – Catalina Sky Survey MPS 26824
1999 11 10.36684 02 29 42.58 +28 13 12.1 18.4 R 703 – Catalina Sky Survey MPS 26824
1999 11 10.37903 02 29 41.89 +28 13 08.8 18.7 R 703 – Catalina Sky Survey MPS 26824
2001 01 04.31026 08 20 53.93 +22 50 58.7 18.8   704 – Lincoln Laboratory ETS, New Mexico MPS 25700
2001 01 04.32537 08 20 53.10 +22 50 59.5 19.0   704 – Lincoln Laboratory ETS, New Mexico MPS 25700
2001 01 04.34049 08 20 52.41 +22 51 00.8 19.1   704 – Lincoln Laboratory ETS, New Mexico MPS 25700
2001 01 04.35560 08 20 51.60 +22 51 00.5 18.4   704 – Lincoln Laboratory ETS, New Mexico MPS 25700
2001 01 04.37071 08 20 50.85 +22 51 01.8 18.8   704 – Lincoln Laboratory ETS, New Mexico MPS 25700
2001 01 20.31939 08 06 22.46 +23 00 36.3 18.9   704 – Lincoln Laboratory ETS, New Mexico MPS 25700
2001 01 20.33431 08 06 21.68 +23 00 37.9 19.2   704 – Lincoln Laboratory ETS, New Mexico MPS 25700
2001 01 20.34923 08 06 20.78 +23 00 36.9 19.4   704 – Lincoln Laboratory ETS, New Mexico MPS 25700
2001 01 20.36423 08 06 19.95 +23 00 37.1 18.4   704 – Lincoln Laboratory ETS, New Mexico MPS 25700
2001 01 21.30840 08 05 26.17 +23 00 55.3 18.3   704 – Lincoln Laboratory ETS, New Mexico MPS 25700
2001 01 21.32359 08 05 25.31 +23 00 55.3 18.8   704 – Lincoln Laboratory ETS, New Mexico MPS 25700
2001 01 21.33875 08 05 24.43 +23 00 55.9 18.5   704 – Lincoln Laboratory ETS, New Mexico MPS 25700
2001 01 21.35391 08 05 23.54 +23 00 55.7 18.7   704 – Lincoln Laboratory ETS, New Mexico MPS 25700
2001 01 21.36905 08 05 22.63 +23 00 56.1 19.6   704 – Lincoln Laboratory ETS, New Mexico MPS 25700
2001 02 01.26435 07 55 20.01 +23 00 56.3 19.2 V 691 – Steward Observatory, Kitt Peak-Spacewatch MPS 25700
2001 02 01.29752 07 55 18.18 +23 00 55.2 20.0 V 691 – Steward Observatory, Kitt Peak-Spacewatch MPS 25700
2001 02 01.34302 07 55 15.77 +23 00 54.7 19.1 V 691 – Steward Observatory, Kitt Peak-Spacewatch MPS 25700
2001 02 19.17433 07 42 18.17 +22 45 53.1 18.3   704 – Lincoln Laboratory ETS, New Mexico MPS 26824
2001 02 19.18831 07 42 17.70 +22 45 51.4 19.1   704 – Lincoln Laboratory ETS, New Mexico MPS 26824
2001 02 19.20266 07 42 17.18 +22 45 51.4 18.8   704 – Lincoln Laboratory ETS, New Mexico MPS 26824
2001 02 19.23114 07 42 16.25 +22 45 48.7 18.5   704 – Lincoln Laboratory ETS, New Mexico MPS 26824
2002 03 25.37971 13 40 16.31 -23 45 21.8 18.5   704 – Lincoln Laboratory ETS, New Mexico MPS 52325
2002 03 25.39191 13 40 15.78 -23 45 22.5 18.8   704 – Lincoln Laboratory ETS, New Mexico MPS 52325
2002 03 25.40401 13 40 15.11 -23 45 23.2 18.2   704 – Lincoln Laboratory ETS, New Mexico MPS 52325
2002 04 18.54221 13 21 01.11 -22 54 05.4 19.0   608 – Haleakala-AMOS MPS 54936
2002 04 18.55291 13 21 00.56 -22 54 03.0 19.2   608 – Haleakala-AMOS MPS 54936
2002 04 18.56422 13 20 59.98 -22 54 00.1 18.8   608 – Haleakala-AMOS MPS 54936
2002 05 09.21111 13 05 58.03 -21 13 57.4 18.9   704 – Lincoln Laboratory ETS, New Mexico MPS 54595
2002 05 09.23570 13 05 57.15 -21 13 49.7 19.2   704 – Lincoln Laboratory ETS, New Mexico MPS 54595
2002 05 09.24809 13 05 56.69 -21 13 46.3 19.4   704 – Lincoln Laboratory ETS, New Mexico MPS 54595
2002 05 09.26039 13 05 56.26 -21 13 42.9 19.7   704 – Lincoln Laboratory ETS, New Mexico MPS 54595
2003 08 04.28190 20 15 53.02 -21 17 37.7 19.0 C 704 – Lincoln Laboratory ETS, New Mexico MPS 290782
2003 08 04.30302 20 15 51.84 -21 17 37.0 19.3 C 704 – Lincoln Laboratory ETS, New Mexico MPS 290782
2003 08 04.31343 20 15 51.33 -21 17 36.6 18.8 C 704 – Lincoln Laboratory ETS, New Mexico MPS 290782
2003 08 04.32384 20 15 50.71 -21 17 36.7 18.3 C 704 – Lincoln Laboratory ETS, New Mexico MPS 290782
2004 09 10.29225 01 27 04.13 +20 55 04.2 18.8   704 – Lincoln Laboratory ETS, New Mexico MPS 113797
2004 09 10.30347 01 27 03.76 +20 55 04.9 19.4   704 – Lincoln Laboratory ETS, New Mexico MPS 113797
2004 09 10.31470 01 27 03.43 +20 55 05.0 19.2   704 – Lincoln Laboratory ETS, New Mexico MPS 113797
2004 09 10.32592 01 27 03.09 +20 55 05.8 19.6   704 – Lincoln Laboratory ETS, New Mexico MPS 113797
2004 09 10.33716 01 27 02.74 +20 55 06.1 19.3   704 – Lincoln Laboratory ETS, New Mexico MPS 113797
2004 09 13.29610 01 25 31.34 +20 56 46.4 19.0   704 – Lincoln Laboratory ETS, New Mexico MPS 113797
2004 09 13.30792 01 25 31.00 +20 56 46.5 19.2   704 – Lincoln Laboratory ETS, New Mexico MPS 113797
2004 09 13.31974 01 25 30.56 +20 56 46.2 19.3   704 – Lincoln Laboratory ETS, New Mexico MPS 113797
2004 09 13.33159 01 25 30.15 +20 56 47.0 19.5   704 – Lincoln Laboratory ETS, New Mexico MPS 113797
2004 09 13.34344 01 25 29.73 +20 56 47.4 19.3   704 – Lincoln Laboratory ETS, New Mexico MPS 113797
2004 09 18.30549 01 22 35.01 +20 56 25.1 19.4   704 – Lincoln Laboratory ETS, New Mexico MPS 115005
2004 09 18.31737 01 22 34.55 +20 56 25.2 19.6   704 – Lincoln Laboratory ETS, New Mexico MPS 115005
2004 09 18.32926 01 22 34.09 +20 56 24.7 19.8   704 – Lincoln Laboratory ETS, New Mexico MPS 115005
2004 09 18.34116 01 22 33.59 +20 56 24.4 19.8   704 – Lincoln Laboratory ETS, New Mexico MPS 115005
2004 09 18.35314 01 22 33.13 +20 56 23.7 19.5   704 – Lincoln Laboratory ETS, New Mexico MPS 115005
2004 09 22.33099 01 19 55.59 +20 53 14.3 18.7 R 699 – Lowell Observatory-LONEOS MPS 120182
2004 09 22.34726 01 19 55.00 +20 53 13.0   699 – Lowell Observatory-LONEOS MPS 120182
2004 09 22.36351 01 19 54.14 +20 53 12.8   699 – Lowell Observatory-LONEOS MPS 120182
2004 09 22.37974 01 19 53.50 +20 53 10.3   699 – Lowell Observatory-LONEOS MPS 120182
2004 10 04.32599 01 10 51.91 +20 28 46.8 18.4 R 699 – Lowell Observatory-LONEOS MPS 116170
2004 10 04.34546 01 10 50.95 +20 28 42.0   699 – Lowell Observatory-LONEOS MPS 116170
2004 10 04.36494 01 10 49.93 +20 28 38.3   699 – Lowell Observatory-LONEOS MPS 116170
2004 10 04.38444 01 10 48.96 +20 28 35.7   699 – Lowell Observatory-LONEOS MPS 116170
2004 10 10.25283 01 06 01.56 +20 09 00.7 18.8   704 – Lincoln Laboratory ETS, New Mexico MPS 117239
2004 10 10.26385 01 06 01.01 +20 08 58.6 18.7   704 – Lincoln Laboratory ETS, New Mexico MPS 117239
2004 10 10.27485 01 06 00.44 +20 08 56.1 19.0   704 – Lincoln Laboratory ETS, New Mexico MPS 117239
2004 10 10.28588 01 05 59.86 +20 08 53.8 19.0   704 – Lincoln Laboratory ETS, New Mexico MPS 117239
2004 10 10.29695 01 05 59.30 +20 08 51.2 18.8   704 – Lincoln Laboratory ETS, New Mexico MPS 117239
2004 10 15.25371 01 01 55.45 +19 49 01.6 19.4   704 – Lincoln Laboratory ETS, New Mexico MPS 117239
2004 10 15.26467 01 01 54.92 +19 48 58.5 19.4   704 – Lincoln Laboratory ETS, New Mexico MPS 117239
2004 10 15.27561 01 01 54.39 +19 48 54.9 19.7   704 – Lincoln Laboratory ETS, New Mexico MPS 117239
2004 10 15.28656 01 01 53.82 +19 48 52.0 19.5   704 – Lincoln Laboratory ETS, New Mexico MPS 117239
2004 10 15.29753 01 01 53.25 +19 48 49.8 19.5   704 – Lincoln Laboratory ETS, New Mexico MPS 117239
2004 11 04.25572 00 47 28.11 +18 11 45.4 18.5 R 703 – Catalina Sky Survey MPS 119031
